Home   Weather   Baghlan   Past weeks

Flag for Afghanistan Past Weather in Baghlan, Afghanistan — Yesterday and Last 2 Weeks

Now
84 °F

Passing clouds.


Feels Like: 82 °F
Forecast: 64 / 91 °F
Wind: 7 mph from West

Location: Termez Airport

Current Time: Aug 17, 2017 at 10:43:27 am

Latest Report: Aug 17, 2017 at 10:00 am


Visibility: N/A

Pressure: 29.86 "Hg (28.10 "Hg at 536m altitude)

Humidity: 23%

Dew Point: 43 °F

Location of BaghlanLocation

Past Weather in Baghlan — Graph

°F

Baghlan Temperature Yesterday

Maximum temperature yesterday: 95 °F (at 12:30 pm)
Minimum temperature yesterday: 59 °F (at 4:00 am)
Average temperature yesterday: 78 °F

High & Low Weather Summary for the Past Weeks

 TemperatureHumidityPressure
High108 °F (Aug 9, 1:30 pm)69% (Aug 9, 5:30 am)29.86 "Hg (Aug 9, 5:30 am)
Low59 °F (Aug 14, 5:30 am)8% (Aug 10, 2:30 pm)28.01 "Hg (Aug 11, 3:30 pm)
Average85 °F26%29.69 "Hg
* Reported Aug 2 9:30 am — Aug 17 9:30 am, Baghlan. Weather by CustomWeather, © 2017

Note: Actual official high and low records may vary slightly from our data, if they occured in-between our weather recording intervals... More about our weather records

Advertising

Baghlan Weather History for the Previous 24 Hours

Scroll right to see more
 ConditionsComfort  
Time TempWeatherWind HumidityBarometerVisibility
9:30 am
Thu, Aug 17
84 °FPassing clouds.9 mph22%29.86 "HgN/A
9:00 am82 °FSunny.9 mph23%29.86 "Hg10 mi
8:30 am79 °FPassing clouds.9 mph28%29.86 "HgN/A
8:00 am77 °FSunny.7 mph30%29.86 "Hg10 mi
7:30 am75 °FSunny.9 mph29%29.86 "Hg10 mi
7:00 am73 °FPassing clouds.7 mph31%29.86 "HgN/A
6:30 am70 °FSunny.7 mph33%29.86 "Hg10 mi
6:00 am64 °FSunny.7 mph40%29.83 "Hg10 mi
4:30 am66 °FPassing clouds.7 mph30%29.80 "HgN/A
4:00 am66 °FPassing clouds.5 mph32%29.80 "HgN/A
2:30 am73 °FClear.14 mph23%29.77 "Hg10 mi
1:30 am75 °FClear.14 mph22%29.77 "Hg10 mi
12:30 am73 °FClear.9 mph22%29.77 "Hg10 mi
12:00 am72 °FClear.9 mph23%29.77 "Hg10 mi
11:30 pm
Wed, Aug 16
68 °FClear.9 mph33%29.77 "Hg10 mi
11:00 pm70 °FClear.7 mph33%29.77 "Hg10 mi
10:00 pm72 °FClear.5 mph33%29.77 "Hg10 mi
9:30 pm72 °FClear.5 mph31%29.77 "Hg10 mi
9:00 pm75 °FClear.7 mph29%29.77 "Hg10 mi
8:00 pm81 °FClear.9 mph20%29.77 "Hg10 mi
7:30 pm81 °FClear.9 mph20%29.77 "Hg10 mi
7:00 pm82 °FClear.9 mph17%29.77 "Hg10 mi
6:00 pm90 °FSunny.12 mph14%29.77 "Hg10 mi
5:30 pm91 °FSunny.14 mph12%29.77 "Hg10 mi
5:00 pm93 °FSunny.14 mph11%29.77 "Hg10 mi
4:00 pm95 °FSunny.16 mph11%29.77 "Hg10 mi
3:30 pm95 °FSunny.14 mph11%29.77 "Hg10 mi
3:00 pm95 °FSunny.14 mph11%29.77 "Hg10 mi
2:30 pm95 °FSunny.16 mph12%29.77 "Hg10 mi
2:00 pm95 °FPassing clouds.14 mph12%29.77 "HgN/A
1:30 pm95 °FSunny.16 mph11%29.77 "Hg10 mi
1:00 pm95 °FPassing clouds.12 mph12%29.77 "HgN/A
12:30 pm95 °FPassing clouds.7 mph13%29.80 "HgN/A
12:00 pm93 °FPassing clouds.7 mph13%29.80 "HgN/A
11:30 am91 °FPassing clouds.7 mph13%29.80 "HgN/A
11:00 am88 °FPassing clouds.7 mph21%29.80 "HgN/A
10:00 am82 °FPassing clouds.7 mph26%29.83 "HgN/A
Weather by CustomWeather, © 2017

See weather overviewHow to use our weather pages